Weather in Jaen

Spain     37°47′10″N   3°46′59″W
В апреле 2022 года жителям России запретили посещать сайт meteo.paraplan.net по решению Генеральной прокуратуры. Аудитория сайта уменьшилась в 10 раз. Владельцы сайта не видят смысла в поддержке погодного сервера в таких условиях. Сайт будет закрыт в октябре.
temp.,
°C
wind,
m/s
gust,
m/s
humid.,
%
clouds,
%
prec.,
mm/h
press.,
hPa
HPBL,
m
4 october, tue
tue423:00+20sw113589 0.0 102211
02:00+19w113938 0.0 102111
05:00+18wsw114358 0.0 102011
08:00+17ene00479 0.0 102011
11:00+23n21332 0.0 1021427
14:00+27nnw32250 0.0 10201192
17:00+28nnw32210 0.0 10191668
20:00+23ssw01302 0.0 101911
5 october, wed
wed523:00+22sw22300 0.0 102011
02:00+20sw11350 0.0 102011
05:00+18wsw11390 0.0 101911
08:00+17s11410 0.0 102011
11:00+24nnw10280 0.0 1021402
14:00+27nnw32235 0.0 10201362
17:00+28nnw331922 0.0 10182412
20:00+23wnw222656 0.0 101911
6 october, thu
thu623:00+22s333236 0.0 102120
02:00+19sse33521 0.0 102221
05:00+17se12590 0.0 102112
08:00+17se22640 0.0 102218
11:00+22e12451 0.0 1023606
14:00+26ese22335 0.0 10221970
17:00+27e22289 0.0 10202621
20:00+22se444034 0.0 102060
7 october, fri
fri723:00+19sse33585 0.0 102357
02:00+18se336028 0.0 102233
05:00+16se3371100 0.0 102141
08:00+16se3372100 0.0 102037
11:00+21e2246100 0.0 1020515
14:00+25e1233100 0.0 10191431
17:00+26e2229100 0.0 10161956
20:00+23se3439100 0.0 101749
8 october, sat
sat823:00+20sse4454100 0.0 101972
02:00+18sse336252 0.0 101941
05:00+17sse2268100 0.0 101823
08:00+17sse2271100 0.0 101825
11:00+22ese124947 0.0 1019499
14:00+27nne12346 0.0 10181575
17:00+28n333025 0.0 10152205
20:00+22ese2251100 1.1 101717